Weather Roundup
Issued by NWS Springfield, MO

Home | Current Version | Previous Version | Text Only | Print | Product List | Glossary On
Versions: 1 2 3 4 5 6 7 8 9 10 11 12 13 14 15 16 17 18 19 20 21 22 23 24 25 26 27 28 29 30 31 32 33 34 35 36 37 38 39 40 41 42 43 44 45 46 47 48 49 50
000
NZUS99 KSGF 290907
HRRSGF

HOURLY WEATHER
NATIONAL WEATHER SERVICE SPRINGFIELD MO
400 AM CDT FRI AUG 29 2014

......SGF CWA......

CITY           SKY/WX    TMP DP  RH WIND       PRES   REMARKS
SPRINGFIELD    CLEAR     72  62  71 SE10      29.93S
JOPLIN         MOCLDY    76  64  66 S8        29.88F
WEST PLAINS    CLEAR     69  63  81 CALM      29.98F
ROLLA          CLEAR     73  64  73 S9        29.94S
OSAGE BEACH    CLEAR     72  63  73 S3        29.93S
BRANSON        PTCLDY    73  64  73 CALM      29.95F

......SURROUNDING SGF CWA......

CITY           SKY/WX    TMP DP  RH WIND       PRES   REMARKS
CHANUTE        PTCLDY    71  62  73 SE8       29.85F
PARSONS        PTCLDY    72  63  73 CALM      29.86F
COFFEYVILLE    PTCLDY    71  63  75 E6        29.85F
EMPORIA        CLOUDY    71  62  73 W7        29.86R
GROVE OK       PTCLDY    77  66  69 SE3       29.88F
ROGERS AR      MOCLDY    73  64  73 E9        29.93F
SILOAM SPRINGS CLEAR     72  61  68 SE6       29.92F
HARRISON AR    CLEAR     70  65  84 SE5       29.96S
NEAR YELLVILLE CLEAR     68  59  73 CALM      29.94F

......KANSAS AND MISSOURI......

CITY           SKY/WX    TMP DP  RH WIND       PRES   REMARKS
KANSAS CTY INT PTCLDY    72  64  76 SE10      29.85F
DOWNTOWN KC    CLEAR     77  63  61 S7        29.84F
COLUMBIA       CLEAR     71  66  84 SE9       29.92F
SEDALIA        CLEAR     70  62  76 S7        29.90F
ST JOSEPH      PTCLDY    72  65  78 S6        29.83F
ST LOUIS       PTCLDY    76  70  82 SE9       29.95F
SPIRIT OF STL  CLEAR     71  70  96 CALM      29.94F FOG
KIRKSVILLE     PTCLDY    72  70  93 S9        29.90F FOG
WICHITA        CLOUDY    69  64  84 SE5       29.84F
TOPEKA         MOCLDY    73  65  75 SE8       29.82F
OLATHE         CLEAR     71  63  75 SE5       29.85F

......TENNESSEE......

CITY           SKY/WX    TMP DP  RH WIND       PRES   REMARKS
MEMPHIS        PTCLDY    79  70  74 SE5       29.95F
NASHVILLE      PTCLDY    72  71  97 S3        30.00F

......ARKANSAS.......

CITY           SKY/WX    TMP DP  RH WIND       PRES   REMARKS
FAYETTEVILLE   MOCLDY    69  66  90 CALM      29.92F
FT SMITH       MOCLDY    75  69  81 E7        29.89S
LITTLE ROCK    PTCLDY    73  67  81 CALM      29.93F

......OKLAHOMA.......

CITY           SKY/WX    TMP DP  RH WIND       PRES   REMARKS
TULSA          MOCLDY    75  67  76 SE6       29.84F
PONCA CITY     CLOUDY    72  68  87 S8        29.86F
MCALESTER      CLOUDY    71  69  93 SE3       29.91F
OKLAHOMA CITY  CLOUDY    69  64  84 W7        29.91S

......IOWA............

CITY           SKY/WX    TMP DP  RH WIND       PRES   REMARKS
DES MOINES     CLOUDY    69  66  90 SE7       29.86F
QUAD CITIES    MOCLDY    70  67  90 SE3       29.92F

......ILLINOIS........

CITY           SKY/WX    TMP DP  RH WIND       PRES   REMARKS
QUINCY         PTCLDY    72  69  90 SE6       29.93F
CHICAGO        CLOUDY    71  63  75 S7        29.97S



USA.gov is the U.S. government's official web portal to all federal, state and local government web resources and services.